[[{"header":{"parameterUnit":"m.s-1","parameterCategory":1,"la1":30.2991,"la2":30.254,"lo1":-89.0895,"lo2":-89.0444,"dy":0.0017,"dx":0.0017,"nx":28,"ny":28,"refTime":"2025-12-17T03:00:00:Z","depth":0,"parameterNumber":2,"parameterNumberName":"U-component_of_WINDS"},"data":[0,0,0,0,0,0,0,0,0,0,0,0,0,0,0,0,0,0,0,0,0,0,0,0,0,0,0,0,0,0,0,0,0,0,0,0,0,0,0,0,0,0,0,0,0,0,0,0,0,0,0,0,0,0,0,0,0,0,-1.5861,-1.586,0,-1.5747,-1.5746,-1.5745,-1.5653,-1.5652,-1.5651,-1.565,-1.5529,-1.5527,-1.5525,0,0,0,0,0,0,0,0,0,0,0,0,0,-1.5997,-1.5995,-1.5861,-1.586,-1.5858,-1.5748,-1.5746,-1.5745,-1.5653,-1.5652,-1.5651,-1.565,-1.553,-1.5527,-1.5525,0,0,0,0,0,0,0,0,0,0,0,0,0,-1.5916,-1.5994,-1.5862,-1.5799,-1.5793,-1.5748,-1.5746,-1.5744,-1.5653,-1.5652,-1.565,-1.5649,-1.5531,-1.5528,-1.5524,-1.5531,0,0,-1.5514,-1.5512,0,0,0,0,0,0,0,0,-1.5921,-1.5911,-1.581,-1.5804,-1.5796,-1.5713,-1.575,-1.5672,-1.5654,-1.5706,-1.565,-1.5648,-1.5591,-1.5583,-1.5564,-1.5525,-1.552,-1.5513,-1.5511,-1.551,-1.5509,0,0,0,0,0,0,0,-1.5926,-1.5915,-1.5816,-1.5809,-1.58,-1.5777,-1.5764,-1.5735,-1.5658,-1.5701,-1.5694,-1.5682,-1.5587,-1.5568,-1.5561,-1.5518,-1.5513,-1.551,-1.5508,-1.5507,-1.5479,-1.5481,0,0,0,0,0,0,-1.5942,-1.5921,-1.582,-1.5813,-1.5856,-1.5775,-1.5761,-1.5741,-1.5658,-1.5644,-1.5684,-1.5679,-1.5575,-1.5565,-1.5556,-1.5559,-1.551,-1.5506,-1.5504,-1.5478,-1.548,-1.5481,0,0,0,0,0,0,-1.5945,-1.5934,-1.5824,-1.5865,-1.5849,-1.5775,-1.5753,-1.5739,-1.572,-1.5645,-1.563,-1.5678,-1.5573,-1.5561,-1.5538,-1.5553,-1.5505,-1.5502,-1.5476,-1.5479,-1.5481,-1.5564,0,0,0,0,0,0,-1.595,-1.5936,-1.5938,-1.5866,-1.5847,-1.5809,-1.5754,-1.5738,-1.5715,-1.5707,-1.5636,-1.5623,-1.5571,-1.5544,-1.5535,-1.5548,-1.5499,-1.5475,-1.5477,-1.548,-1.5559,-1.5568,-1.5576,0,0,0,0,0,-1.5955,-1.5964,-1.5938,-1.5926,-1.5848,-1.581,-1.5799,-1.5741,-1.5716,-1.5717,-1.567,-1.5625,-1.5554,-1.5543,-1.5531,-1.5543,-1.5473,-1.5477,-1.548,-1.5555,-1.5567,-1.5576,0,0,0,0,0,0,-1.6038,-1.5954,-1.5924,-1.591,-1.5869,-1.5795,-1.5794,-1.5755,-1.5718,-1.5712,-1.564,-1.5625,-1.561,-1.5574,-1.5563,-1.5546,-1.5508,-1.5509,-1.5569,-1.5579,-1.5588,-1.5596,-1.5496,0,0,0,0,0,-1.6055,-1.6032,-1.5959,-1.5955,-1.5935,-1.5869,-1.585,-1.5809,-1.5762,-1.5743,-1.5693,-1.5648,-1.5616,-1.5596,-1.5562,-1.5555,-1.5538,-1.5557,-1.5566,-1.5573,-1.5574,-1.5569,-1.5577,-1.5492,-1.5491,-1.5491,0,0,-1.6089,-1.6041,-1.603,-1.597,-1.5933,-1.591,-1.5854,-1.5832,-1.5814,-1.5739,-1.5715,-1.5677,-1.5622,-1.5608,-1.5599,-1.5578,-1.5595,-1.5577,-1.5584,-1.5581,-1.5573,-1.5581,-1.5588,-1.5494,-1.5493,-1.5493,0,0,-1.614,-1.6101,-1.6094,-1.6058,-1.6003,-1.5959,-1.5958,-1.5891,-1.5863,-1.5838,-1.5782,-1.576,-1.5705,-1.5669,-1.5643,-1.5684,-1.5642,-1.5675,-1.5719,-1.5714,-1.5721,-1.5726,-1.5741,-1.5747,-1.5677,-1.5677,-1.5677,0,-1.6189,-1.6153,-1.6094,-1.6076,-1.6051,-1.5986,-1.5977,-1.5945,-1.5881,-1.5866,-1.5844,-1.5775,-1.5734,-1.571,-1.5721,-1.5702,-1.5698,-1.5682,-1.5725,-1.573,-1.5734,-1.5747,-1.5753,-1.5682,-1.5681,-1.5681,-1.568,0,-1.6217,-1.6193,-1.6193,-1.6136,-1.6111,-1.6098,-1.6037,-1.6019,-1.5982,-1.594,-1.5916,-1.5865,-1.582,-1.5811,-1.5773,-1.5783,-1.5772,-1.5739,-1.5699,-1.5748,-1.5759,-1.5763,-1.5688,-1.5686,-1.5685,-1.5684,0,0,-1.6314,-1.6226,-1.6227,-1.6201,-1.6137,-1.6117,-1.6101,-1.6059,-1.6046,-1.6005,-1.5989,-1.5947,-1.5916,-1.5887,-1.5845,-1.5841,-1.5878,-1.5808,-1.5806,-1.5823,-1.5885,-1.591,-1.5917,-1.585,-1.5851,-1.5851,-1.589,0,-1.6354,-1.6323,-1.6271,-1.6256,-1.6234,-1.6173,-1.6159,-1.6118,-1.608,-1.6055,-1.6012,-1.5983,-1.5945,-1.5927,-1.5921,-1.5875,-1.5889,-1.5871,-1.5834,-1.5834,-1.5849,-1.5922,-1.5948,-1.5986,-1.5894,-1.5894,-1.5895,0,-1.6396,-1.6361,-1.6345,-1.6285,-1.6273,-1.6262,-1.622,-1.6197,-1.615,-1.6122,-1.6092,-1.6047,-1.6027,-1.5993,-1.5964,-1.5953,-1.5936,-1.5911,-1.5911,-1.5904,-1.5866,-1.5917,-1.5997,-1.6003,-1.5901,-1.59,-1.59,0,-1.6468,-1.6417,-1.6401,-1.6381,-1.6309,-1.6303,-1.6273,-1.6225,-1.6204,-1.6167,-1.6152,-1.6114,-1.6092,-1.6063,-1.6008,-1.5988,-1.5986,-1.5947,-1.5962,-1.5964,-1.5963,-1.5963,-1.6041,-1.5953,-1.5953,-1.5953,-1.5953,0,-1.6517,-1.651,-1.6433,-1.6423,-1.6413,-1.6354,-1.6346,-1.631,-1.6268,-1.625,-1.6194,-1.6178,-1.6108,-1.6084,-1.6041,-1.6024,-1.6015,-1.5992,-1.598,-1.5996,-1.5999,-1.5982,-1.5978,-1.5955,-1.5954,-1.5954,-1.5954,0,-1.6596,-1.6544,-1.6522,-1.6458,-1.6442,-1.6438,-1.6382,-1.637,-1.633,-1.6308,-1.63,-1.6236,-1.6205,-1.6149,-1.6101,-1.6072,-1.6064,-1.6045,-1.6081,-1.6073,-1.6092,-1.6091,-1.616,-1.6166,-1.6077,-1.6077,-1.6078,0,-1.663,-1.6623,-1.6559,-1.6544,-1.6517,-1.6493,-1.6471,-1.6413,-1.6393,-1.6341,-1.6335,-1.63,-1.6269,-1.6222,-1.6171,-1.6135,-1.6114,-1.6141,-1.6108,-1.6125,-1.6114,-1.6115,-1.6114,-1.6148,-1.6149,-1.615,-1.6151,0,-1.6696,-1.6672,-1.6644,-1.6608,-1.6585,-1.6553,-1.6518,-1.6509,-1.6443,-1.6423,-1.6392,-1.6368,-1.6321,-1.6287,-1.6244,-1.6212,-1.6171,-1.6163,-1.6164,-1.6179,-1.62,-1.6189,-1.61,-1.6161,-1.616,-1.6159,-1.6158,-1.6158,-1.6753,-1.6745,-1.6699,-1.667,-1.6639,-1.6609,-1.6595,-1.6554,-1.6528,-1.6486,-1.6453,-1.6424,-1.6379,-1.6317,-1.6288,-1.6265,-1.6245,-1.6247,-1.6247,-1.6249,-1.6255,-1.6206,-1.6257,-1.6256,-1.6256,-1.6256,-1.6255,0,-1.6816,-1.6785,-1.6759,-1.6714,-1.6692,-1.6657,-1.6618,-1.6601,-1.6577,-1.6539,-1.651,-1.6475,-1.6443,-1.6391,-1.6354,-1.6345,-1.6325,-1.6337,-1.6337,-1.633,-1.6275,-1.6277,-1.6354,-1.6354,-1.6354,-1.6354,-1.6354,-1.6354,-1.6847,-1.6831,-1.6802,-1.6771,-1.6738,-1.6711,-1.6692,-1.6664,-1.6633,-1.6597,-1.657,-1.6537,-1.6494,-1.6454,-1.6423,-1.6408,-1.6397,-1.6415,-1.6394,-1.6343,-1.6334,-1.6325,-1.6327,-1.6413,-1.6413,-1.6451,-1.6452,-1.6452]},{"header":{"parameterUnit":"m.s-1","parameterCategory":1,"la1":30.2991,"la2":30.254,"lo1":-89.0895,"lo2":-89.0444,"dy":0.0017,"dx":0.0017,"nx":28,"ny":28,"refTime":"2025-12-17T03:00:00:Z","depth":0,"parameterNumber":3,"parameterNumberName":"V-component_of_WINDS"},"data":[0,0,0,0,0,0,0,0,0,0,0,0,0,0,0,0,0,0,0,0,0,0,0,0,0,0,0,0,0,0,0,0,0,0,0,0,0,0,0,0,0,0,0,0,0,0,0,0,0,0,0,0,0,0,0,0,0,0,2.5111,2.5111,0,2.5082,2.5082,2.5081,2.5079,2.508,2.508,2.508,2.5046,2.5044,2.5043,0,0,0,0,0,0,0,0,0,0,0,0,0,2.5161,2.5161,2.5111,2.5111,2.5111,2.5082,2.5082,2.5081,2.5079,2.508,2.508,2.508,2.5046,2.5045,2.5043,0,0,0,0,0,0,0,0,0,0,0,0,0,2.5137,2.516,2.5111,2.5106,2.5105,2.5082,2.5082,2.5081,2.5079,2.508,2.508,2.5081,2.5046,2.5045,2.5043,2.5021,0,0,2.5037,2.5036,0,0,0,0,0,0,0,0,2.5138,2.5135,2.5107,2.5106,2.5106,2.5085,2.5087,2.5061,2.5079,2.5089,2.508,2.5081,2.5058,2.5055,2.5048,2.502,2.5018,2.5037,2.5036,2.5035,2.5035,0,0,0,0,0,0,0,2.514,2.5136,2.5099,2.5107,2.5106,2.5104,2.5101,2.5082,2.5071,2.5088,2.5088,2.5085,2.5057,2.505,2.5048,2.5018,2.5037,2.5035,2.5034,2.5034,2.497,2.497,0,0,0,0,0,0,2.5143,2.5137,2.51,2.5099,2.5124,2.5103,2.5099,2.5091,2.5071,2.5069,2.5084,2.5085,2.5053,2.505,2.5046,2.5021,2.5035,2.5033,2.5032,2.4971,2.497,2.4969,0,0,0,0,0,0,2.5144,2.514,2.5102,2.5118,2.5113,2.5101,2.5092,2.509,2.5083,2.5068,2.5066,2.5079,2.5053,2.5049,2.5028,2.5019,2.5032,2.5031,2.4971,2.497,2.497,2.4968,0,0,0,0,0,0,2.5146,2.514,2.5133,2.5118,2.5112,2.5085,2.5091,2.5089,2.508,2.508,2.5063,2.506,2.5053,2.5031,2.5026,2.5017,2.5029,2.4972,2.4971,2.497,2.4969,2.4967,2.4966,0,0,0,0,0,2.5147,2.5132,2.5132,2.5128,2.5103,2.5084,2.5081,2.5075,2.5079,2.5071,2.5062,2.5061,2.5021,2.5029,2.5023,2.5013,2.4973,2.4971,2.497,2.497,2.4968,2.4966,0,0,0,0,0,0,2.5144,2.513,2.513,2.511,2.5099,2.5084,2.5074,2.5073,2.5059,2.5059,2.5051,2.5047,2.5026,2.5018,2.5027,2.4992,2.4997,2.4995,2.4999,2.4997,2.4995,2.4998,2.5028,0,0,0,0,0,2.5142,2.513,2.5117,2.51,2.5095,2.5085,2.5077,2.5074,2.5061,2.5055,2.5045,2.5031,2.5016,2.5005,2.499,2.4968,2.4964,2.4958,2.4957,2.4955,2.4954,2.4942,2.4939,2.4965,2.4965,2.4965,0,0,2.5135,2.5126,2.5119,2.51,2.509,2.5077,2.5081,2.5066,2.5056,2.5053,2.5033,2.5024,2.5009,2.4987,2.4977,2.4979,2.4946,2.4954,2.4953,2.4952,2.494,2.4937,2.4935,2.4964,2.4964,2.4965,0,0,2.5118,2.5109,2.5095,2.5086,2.5073,2.5067,2.5064,2.5049,2.5044,2.5025,2.5022,2.5009,2.4982,2.4971,2.4962,2.4941,2.4939,2.4936,2.4929,2.4917,2.4915,2.4913,2.4906,2.4904,2.4934,2.4934,2.4934,0,2.5111,2.5092,2.5087,2.5073,2.5065,2.5063,2.5048,2.5039,2.5021,2.5015,2.5018,2.4985,2.4974,2.4951,2.4946,2.4938,2.4934,2.4938,2.4916,2.4914,2.4912,2.4905,2.4903,2.4934,2.4934,2.4934,2.4934,0,2.5085,2.5072,2.5062,2.5047,2.5037,2.5022,2.5014,2.5005,2.5002,2.4996,2.4975,2.4963,2.4945,2.4939,2.4935,2.4915,2.4917,2.4918,2.4923,2.491,2.4903,2.49,2.4934,2.4934,2.4934,2.4934,0,0,2.5064,2.5048,2.5044,2.5038,2.5023,2.5012,2.4997,2.4982,2.4974,2.4961,2.4949,2.4926,2.4928,2.4918,2.4913,2.4902,2.4887,2.4905,2.4904,2.4903,2.4864,2.4864,2.4861,2.4886,2.4885,2.4885,2.4866,0,2.5045,2.5021,2.5017,2.4995,2.4982,2.4981,2.4968,2.4957,2.495,2.4938,2.4929,2.4915,2.4917,2.4911,2.4901,2.4891,2.488,2.4893,2.4873,2.4873,2.4878,2.4858,2.4857,2.484,2.4863,2.4863,2.4863,0,2.502,2.5009,2.4987,2.4975,2.4969,2.4958,2.4944,2.4932,2.492,2.4916,2.4905,2.4901,2.4885,2.4891,2.4868,2.4877,2.4869,2.4863,2.4862,2.486,2.4867,2.4856,2.4834,2.4832,2.4858,2.4859,2.4859,0,2.5008,2.4987,2.4972,2.4966,2.4951,2.4944,2.4937,2.4925,2.4916,2.4903,2.4898,2.4882,2.4874,2.4862,2.4854,2.4859,2.4832,2.4837,2.4827,2.4828,2.4822,2.4823,2.4799,2.4816,2.4816,2.4816,2.4816,0,2.4988,2.4974,2.4966,2.4957,2.4941,2.4936,2.492,2.4913,2.4903,2.4891,2.4888,2.4876,2.4866,2.4853,2.4847,2.4829,2.4825,2.4821,2.4819,2.4821,2.4822,2.4816,2.4817,2.4815,2.4815,2.4815,2.4816,0,2.4972,2.4966,2.4949,2.4937,2.4934,2.4923,2.4913,2.4903,2.4896,2.4881,2.4877,2.4867,2.4851,2.4842,2.4822,2.4818,2.4798,2.4797,2.4803,2.4803,2.4794,2.4796,2.4767,2.4763,2.4782,2.4781,2.4781,0,2.496,2.495,2.4938,2.493,2.4924,2.4912,2.4904,2.4898,2.4889,2.4875,2.4866,2.4851,2.4839,2.4814,2.4804,2.4788,2.4787,2.4778,2.4785,2.4787,2.4788,2.4789,2.4788,2.4777,2.4777,2.4777,2.4776,0,2.4939,2.4937,2.4926,2.4915,2.4905,2.4895,2.4885,2.4879,2.4871,2.4861,2.4847,2.4837,2.4818,2.4803,2.4787,2.4778,2.4776,2.4775,2.4772,2.4774,2.4779,2.4777,2.4801,2.4775,2.4775,2.4775,2.4776,2.4776,2.4925,2.4916,2.4907,2.4895,2.4887,2.4878,2.4869,2.4862,2.485,2.4835,2.4832,2.4816,2.4804,2.4783,2.4774,2.4761,2.4762,2.4758,2.4757,2.4756,2.4756,2.478,2.4758,2.4758,2.4758,2.4758,2.4758,0,2.4905,2.4899,2.4888,2.4875,2.4866,2.4866,2.4855,2.4847,2.4834,2.4823,2.4812,2.4795,2.478,2.4769,2.4754,2.4746,2.4745,2.4742,2.4743,2.4741,2.4756,2.476,2.4744,2.4744,2.4744,2.4744,2.4744,2.4744,2.4893,2.4879,2.4876,2.4857,2.4851,2.4837,2.4831,2.4822,2.4814,2.4796,2.4785,2.4778,2.4768,2.4752,2.4738,2.4735,2.473,2.4728,2.4725,2.4739,2.474,2.4742,2.4746,2.4727,2.4727,2.4712,2.4712,2.4712]}]]